When you browse on this site, cookies collect data to enhance your experience and personalize the content and advertising you see.
Visit our Privacy Policy to learn more. By continuing to use the site, you agree to this use of cookies and data.
  • In Hungary
  • List of Countries
  • For 7 days
  • Water Temperature
  • Satellite Maps
  • Weather Map
  • News
  • Weather Widgets
  • user-avatar
    Login

    Hourly Weather Bydgoszcz

    Today, 16 January, Wednesday

    Time Temperature Precipitation Wind Pressure Humidity
    00:00 +2°C° 0 mm 8 mps 744 mmHg 83%
    01:00 +2°C° 0 mm 5 mps 744 mmHg 82%
    02:00 +2°C° 0.1 mm 5 mps 745 mmHg 84%
    03:00 +2°C° 0.1 mm 5 mps 745 mmHg 86%
    04:00 +3°C° 0.1 mm 4 mps 746 mmHg 88%
    05:00 +3°C° 0.3 mm 4 mps 746 mmHg 90%
    06:00 +3°C° 0.3 mm 4 mps 747 mmHg 91%
    07:00 +3°C° 0.3 mm 3 mps 747 mmHg 93%
    08:00 +3°C° 0.3 mm 3 mps 747 mmHg 93%
    09:00 +3°C° 0.3 mm 3 mps 747 mmHg 94%
    10:00 +3°C° 0.3 mm 3 mps 748 mmHg 95%
    11:00 +4°C° 0 mm 4 mps 748 mmHg 90%
    12:00 +5°C° 0 mm 5 mps 748 mmHg 86%
    13:00 +4°C° 0 mm 6 mps 748 mmHg 81%
    14:00 +4°C° 0 mm 6 mps 748 mmHg 83%
    15:00 +5°C° 0 mm 5 mps 748 mmHg 85%
    16:00 +5°C° 0 mm 5 mps 747 mmHg 86%
    17:00 +4°C° 0 mm 6 mps 747 mmHg 86%
    18:00 +4°C° 0 mm 6 mps 747 mmHg 86%
    19:00 +4°C° 0 mm 6 mps 747 mmHg 86%
    20:00 +3°C° 0 mm 6 mps 747 mmHg 85%
    21:00 +3°C° 0 mm 6 mps 746 mmHg 85%
    22:00 +3°C° 0 mm 6 mps 746 mmHg 84%
    23:00 +3°C° 0 mm 6 mps 745 mmHg 83%

    Tomorrow, 17 January, Thursday

    Time Temperature Precipitation Wind Pressure Humidity
    00:00 +2°C° 0 mm 6 mps 745 mmHg 83%
    01:00 +2°C° 0 mm 6 mps 744 mmHg 82%
    02:00 +2°C° 0 mm 6 mps 743 mmHg 80%
    03:00 +2°C° 0 mm 7 mps 743 mmHg 77%
    04:00 +2°C° 0 mm 7 mps 742 mmHg 75%
    05:00 +2°C° 0 mm 7 mps 742 mmHg 74%
    06:00 +2°C° 0 mm 7 mps 742 mmHg 73%
    07:00 +1°C° 0 mm 8 mps 742 mmHg 73%
    08:00 +1°C° 0.1 mm 8 mps 742 mmHg 74%
    09:00 +2°C° 0.1 mm 8 mps 742 mmHg 75%
    10:00 +2°C° 0.1 mm 8 mps 742 mmHg 76%
    11:00 +4°C° 0 mm 8 mps 742 mmHg 71%
    12:00 +4°C° 0 mm 8 mps 742 mmHg 67%
    13:00 +4°C° 0 mm 8 mps 743 mmHg 63%
    14:00 +4°C° 0 mm 8 mps 742 mmHg 65%
    15:00 +3°C° 0 mm 7 mps 742 mmHg 67%
    16:00 +3°C° 0 mm 6 mps 742 mmHg 69%
    17:00 +3°C° 0.3 mm 6 mps 742 mmHg 71%
    18:00 +3°C° 0.3 mm 5 mps 742 mmHg 73%
    19:00 +2°C° 0.3 mm 5 mps 742 mmHg 76%
    20:00 +2°C° 0.8 mm 6 mps 742 mmHg 73%
    21:00 0°C° 0.8 mm 7 mps 742 mmHg 70%
    22:00 0°C° 0.8 mm 8 mps 743 mmHg 67%
    23:00 -1°C° 0 mm 8 mps 743 mmHg 66%

    Day after tomorrow, 18 January, Friday

    Time Temperature Precipitation Wind Pressure Humidity
    00:00 -1°C° 0 mm 8 mps 743 mmHg 66%
    01:00 -2°C° 0 mm 8 mps 744 mmHg 65%
    02:00 -2°C° 0 mm 8 mps 744 mmHg 68%
    03:00 -2°C° 0 mm 7 mps 744 mmHg 71%
    04:00 -2°C° 0 mm 7 mps 744 mmHg 74%
    05:00 -2°C° 0.1 mm 7 mps 745 mmHg 76%
    06:00 -2°C° 0.1 mm 7 mps 746 mmHg 78%
    07:00 -2°C° 0.1 mm 6 mps 747 mmHg 80%
    08:00 -2°C° 0.1 mm 6 mps 748 mmHg 78%
    09:00 -2°C° 0.1 mm 6 mps 750 mmHg 76%
    10:00 -1°C° 0.1 mm 5 mps 751 mmHg 74%
    11:00 -1°C° 0 mm 5 mps 752 mmHg 69%
    12:00 -2°C° 0 mm 6 mps 753 mmHg 64%
    13:00 -2°C° 0 mm 6 mps 754 mmHg 59%
    14:00 -1°C° 0 mm 5 mps 755 mmHg 62%
    15:00 -2°C° 0 mm 4 mps 756 mmHg 64%
    16:00 -1°C° 0 mm 3 mps 756 mmHg 66%
    17:00 -2°C° 0 mm 3 mps 757 mmHg 69%
    18:00 -2°C° 0 mm 3 mps 757 mmHg 71%
    19:00 -2°C° 0 mm 3 mps 758 mmHg 73%
    20:00 -2°C° 0 mm 3 mps 758 mmHg 76%
    21:00 -2°C° 0 mm 3 mps 758 mmHg 79%
    22:00 -2°C° 0 mm 3 mps 758 mmHg 81%
    23:00 -2°C° 0 mm 3 mps 758 mmHg 82%

    19 January, Saturday

    Time Temperature Precipitation Wind Pressure Humidity
    00:00 -3°C° 0 mm 4 mps 758 mmHg 82%
    01:00 -3°C° 0 mm 4 mps 758 mmHg 82%
    02:00 -3°C° 0 mm 4 mps 758 mmHg 81%
    03:00 -3°C° 0 mm 4 mps 758 mmHg 81%
    04:00 -3°C° 0 mm 4 mps 758 mmHg 80%
    05:00 -3°C° 0 mm 4 mps 758 mmHg 80%
    06:00 -3°C° 0 mm 4 mps 758 mmHg 81%
    07:00 -2°C° 0 mm 3 mps 758 mmHg 81%
    08:00 -2°C° 0 mm 3 mps 759 mmHg 80%
    09:00 -1°C° 0 mm 3 mps 759 mmHg 79%
    10:00 -1°C° 0 mm 3 mps 759 mmHg 79%
    11:00 0°C° 0 mm 3 mps 759 mmHg 77%
    12:00 0°C° 0 mm 3 mps 759 mmHg 75%
    13:00 +1°C° 0 mm 3 mps 759 mmHg 73%
    14:00 +1°C° 0 mm 2 mps 759 mmHg 77%
    15:00 +1°C° 0 mm 2 mps 759 mmHg 80%
    16:00 -1°C° 0 mm 2 mps 758 mmHg 83%
    17:00 -1°C° 0 mm 2 mps 759 mmHg 84%
    18:00 -2°C° 0 mm 2 mps 759 mmHg 85%
    19:00 -2°C° 0 mm 2 mps 759 mmHg 86%
    20:00 -2°C° 0 mm 2 mps 759 mmHg 86%
    21:00 -2°C° 0 mm 2 mps 759 mmHg 86%
    22:00 -2°C° 0 mm 2 mps 759 mmHg 87%
    23:00 -2°C° 0 mm 2 mps 759 mmHg 87%

    20 January, Sunday

    Time Temperature Precipitation Wind Pressure Humidity
    00:00 -2°C° 0 mm 2 mps 759 mmHg 86%
    01:00 -2°C° 0 mm 2 mps 759 mmHg 86%
    02:00 -2°C° 0 mm 2 mps 759 mmHg 87%
    03:00 -3°C° 0 mm 2 mps 759 mmHg 87%
    04:00 -3°C° 0 mm 2 mps 758 mmHg 87%
    05:00 -3°C° 0 mm 2 mps 759 mmHg 87%
    06:00 -3°C° 0 mm 2 mps 759 mmHg 87%
    07:00 -2°C° 0 mm 2 mps 759 mmHg 87%
    08:00 -2°C° 0 mm 2 mps 759 mmHg 84%
    09:00 -1°C° 0 mm 3 mps 759 mmHg 81%
    10:00 -1°C° 0 mm 3 mps 759 mmHg 78%
    11:00 -1°C° 0 mm 4 mps 759 mmHg 75%
    12:00 -1°C° 0 mm 4 mps 759 mmHg 72%
    13:00 0°C° 0 mm 4 mps 759 mmHg 69%
    14:00 -1°C° 0 mm 4 mps 759 mmHg 72%
    15:00 0°C° 0 mm 3 mps 760 mmHg 75%
    16:00 -1°C° 0 mm 3 mps 760 mmHg 78%
    17:00 -2°C° 0 mm 3 mps 760 mmHg 78%
    18:00 -2°C° 0 mm 3 mps 761 mmHg 77%
    19:00 -4°C° 0 mm 3 mps 761 mmHg 77%
    20:00 -4°C° 0 mm 3 mps 762 mmHg 76%
    21:00 -4°C° 0 mm 3 mps 762 mmHg 75%
    22:00 -4°C° 0 mm 3 mps 763 mmHg 74%
    23:00 -4°C° 0 mm 3 mps 763 mmHg 74%

    21 January, Monday

    Time Temperature Precipitation Wind Pressure Humidity
    00:00 -4°C° 0 mm 3 mps 764 mmHg 73%
    01:00 -3°C° 0 mm 2 mps 764 mmHg 73%
    02:00 -4°C° 0 mm 2 mps 764 mmHg 74%
    03:00 -4°C° 0 mm 2 mps 765 mmHg 74%
    04:00 -4°C° 0 mm 2 mps 765 mmHg 74%
    05:00 -4°C° 0 mm 2 mps 765 mmHg 75%
    06:00 -4°C° 0 mm 2 mps 766 mmHg 75%
    07:00 -4°C° 0 mm 2 mps 766 mmHg 75%
    08:00 -4°C° 0 mm 2 mps 766 mmHg 72%
    09:00 -3°C° 0 mm 2 mps 767 mmHg 69%
    10:00 -3°C° 0 mm 2 mps 767 mmHg 66%
    11:00 -2°C° 0 mm 2 mps 767 mmHg 63%
    12:00 -2°C° 0 mm 2 mps 767 mmHg 60%
    13:00 -1°C° 0 mm 2 mps 767 mmHg 57%
    14:00 -1°C° 0 mm 2 mps 767 mmHg 59%
    15:00 -2°C° 0 mm 2 mps 767 mmHg 62%
    16:00 -3°C° 0 mm 2 mps 767 mmHg 64%
    17:00 -3°C° 0 mm 2 mps 767 mmHg 65%
    18:00 -3°C° 0 mm 2 mps 767 mmHg 66%
    19:00 -3°C° 0 mm 2 mps 767 mmHg 67%
    20:00 -4°C° 0 mm 2 mps 767 mmHg 67%
    21:00 -4°C° 0 mm 2 mps 767 mmHg 68%
    22:00 -5°C° 0 mm 3 mps 767 mmHg 68%
    23:00 -5°C° 0 mm 3 mps 767 mmHg 69%
    Show more